Location: Val-d'Or
(48.1170°N, 77.7670°W)
Time: 23:44:56
(UTC-04:00)

ISS - Visible Passes

Search period start: 02 October 2023 00:00
Search period end: 12 October 2023 00:00
Orbit: 414 x 421 km, 51.6° (Epoch: 02 October)

Date Brightness Start Highest point End Pass type
(mag) Time Alt. Az. Time Alt. Az. Time Alt. Az.
02 Oct -1.3 20:18:50 10° W 20:21:09 18° SW 20:23:28 10° S visible
03 Oct -1.8 19:30:19 10° W 19:33:10 26° SW 19:36:03 10° SSE visible
05 Oct -0.7 19:31:54 10° WSW 19:33:11 12° SW 19:34:28 10° SSW visible
